Location: Appeville
(49.3218°N, 1.3427°W)
Time: 00:15:09
(UTC+00:00)

Cosmos 1624 Rocket - Pass Details

Date: 08 December 2019
Orbit: 758 x 784 km, 74.0° (Epoch: 27 January)

Event Time Altitude Azimuth Distance (km) Brightness Sun altitude
Exits shadow 05:07:32 - 197° (SSW) 2,396 6.4 -24.9°
Reaches altitude 10° 05:07:42 10° 197° (SSW) 2,328 6.4 -24.9°
Maximum altitude 05:13:00 81° 112° (ESE) 799 4.0 -24.0°
Drops below altitude 10° 05:18:22 10° 25° (NNE) 2,352 6.7 -23.2°
Sets 05:20:46 0° 25° (NNE) 3,285 7.5 -22.8°
